Powrót do katalogu

COSMOS 839 DEB

AktywnyUNKNOWN
NORAD 12333·DEBRIS·🇷🇺 Russia

Wystrzelony Jul 8, 1976 z Plesetsk Cosmodrome

Loading…

Następne Przeloty (najbliższe 24 godziny)

TLE

ŚwieżeSource: Space-Track

Epoka: Sep 14, 2026, 22:12 UTC

1 12333U 76067AZ  26257.92532547 -.00000062  00000-0 -10789-4 0  9996
2 12333  65.9315  71.3754 0737466 254.3600 267.3026 12.45232892586028

Śledź COSMOS 839 DEB w czasie rzeczywistym z AllMySat

Download on the App Store